Location: Unspecified
(0.0000°N, 0.0000°E)
Time: 01:48:51
(UTC+00:00)

FORMOSAT 3D - Visible Passes

Search period start: 16 May 2026 00:00
Search period end: 26 May 2026 00:00
Orbit: 640 x 702 km, 72.0° (Epoch: 15 May)

Date Brightness Start Highest point End Pass type
(mag) Time Alt. Az. Time Alt. Az. Time Alt. Az.
21 May 10.3 19:48:05 10° NNE 19:48:09 10° NNE 19:48:09 10° NNE visible
22 May 10.0 20:20:44 10° NNW 20:22:10 20° NNW 20:22:10 20° NNW visible
23 May 9.6 19:16:16 10° NNE 19:17:59 15° NE 19:17:59 15° NE visible
23 May 10.7 20:55:34 10° NW 20:56:15 13° WNW 20:56:15 13° WNW visible
24 May 8.3 19:48:28 10° N 19:52:08 49° NNE 19:52:08 49° NNE visible
25 May 9.5 18:44:39 10° NE 18:47:12 14° ENE 18:48:04 14° E visible
25 May 9.6 20:22:56 10° NW 20:26:21 27° W 20:26:21 27° W visible
